SCP
-0 -0 -0 -0 -0 -0 -0 -0 -0 -0 -0 -0 -0 0 0 0 -0 0 0 0 0 0 0 0 0 0 0 0 0 0 0 0 0 0 0 0 0 0 0 0 0 0 0 0 0 0 0
-0 -0 -0 -0 -0 -0 -0 -0 -0 -0 -0 -0 -0 0 0 -0 -0 0 0 0 0 0 0 0 0 0 -0 0 0 0 0 0 0 0 0 0 0 0 0 0 0 0 0 0 0 0 0
-0 -0 0 0 -0 -0 -0 -0 -0 -0 -0 -0 -0 0 0 -0 -0 0 0 0 0 0 0 0 0 0 0 -0 0 0 0 0 0 0 0 0 0 0 0 0 0 0 0 0 0 0 0
-0 0 0 0 -0 -0 -0 -0 -0 -0 -0 0 -0 0 -0 -0 -0 0 0 0 0 0 0 0 0 0 0 0 0 0 0 0 0 0 0 0 0 0 0 0 0 0 0 0 0 0 0
0 0 0 0 -0 -0 -0 -0 -0 -0 -0 -0 -0 0 0 -0 0 0 0 0 0 0 0 -0 0 0 -0 0 0 0 0 0 0 0 0 0 0 0 0 0 0 0 0 0 0 0 0
0 0 0 0 0 0 -0 -0 -0 -0 -0 -0 -0 0 0 0 -0 0 0 0 0 0 0 0 0 0 0 0 0 0 0 0 0 0 0 0 0 0 0 0 0 0 0 0 0 0 0
0 0 0 0 0 -0 -0 -0 -0 -0 -0 -0 -0 0 -0 -0 -0 0 0 0 0 0 0 0 0 0 0 0 0 0 0 0 0 0 0 0 0 0 0 0 0 0 0 0 0 0 0
0 0 0 0 -0 -0 -0 -0 -0 -0 -0 -0 -0 0 0 -0 -0 0 0 0 0 0 0 -0 0 0 0 0 0 0 0 0 0 0 0 0 0 0 0 0 0 0 0 0 0 0 0
0 0 0 0 -0 -0 -0 -0 -0 -0 -0 -0 0 0 0 0 0 0 0 0 0 0 0 0 0 0 0 0 0 0 0 0 0 0 0 0 0 0 0 0 0 0 0 0 0 0 0
0 0 0 0 -0 -0 -0 -0 -0 -0 -0 -0 0 0 0 0 0 0 0 0 0 0 0 0 0 0 0 0 0 0 0 0 0 0 0 0 0 0 0 0 0 0 0 0 0 0 0
0 0 0 0 0 -0 -0 -0 -0 -0 -0 -0 0 0 -0 0 0 0 0 0 0 0 0 0 0 0 0 0 0 0 0 0 0 0 0 0 0 0 0 0 0 0 0 0 0 0 0
0 0 0 0 0 0 -0 -0 -0 -0 -0 -0 -0 0 0 0 0 0 0 0 0 0 0 0 0 0 0 0 0 0 0 0 0 0 0 0 0 0 0 0 0 0 0 0 0 0 0
0 0 0 0 0 0 0 -0 -0 -0 -0 0 0 0 -0 0 0 0 0 0 0 0 0 0 0 0 0 0 0 0 0 0 -0 0 0 0 0 0 0 0 0 0 0 0 0 0 0
0 0 0 0 0 0 0 -0 -0 -0 -0 0 0 0 0 0 0 0 0 0 0 0 0 0 0 0 0 0 0 0 0 0 0 0 0 0 0 0 0 0 0 0 0 0 0 0 0
0 0 0 0 0 0 0 0 -0 -0 -0 0 0 0 0 0 0 0 0 0 0 0 0 0 0 0 0 0 0 0 0 0 0 0 0 0 0 0 0 0 0 0 0 0 0 0 0
0 0 0 0 0 0 0 0 0 0 0 0 0 0 0 0 0 0 0 0 0 0 0 0 0 0 0 0 0 0 0 0 0 0 0 0 0 0 0 0 0 0 0 0 0 0 0
0 0 0 0 0 0 0 0 0 0 0 0 0 0 0 0 0 0 0 0 0 0 0 0 0 0 0 0 0 0 0 0 0 0 0 0 0 0 0 0 0 0 0 0 0 0 0
0 0 0 0 0 0 0 0 0 0 0 0 0 0 0 0 0 0 0 0 0 0 0 0 0 0 0 0 0 0 0 0 0 0 0 0 0 0 0 0 0 0 0 0 0 0 0
0 0 0 0 0 0 0 0 0 0 0 0 0 0 0 0 0 0 0 0 0 0 0 0 0 0 0 0 0 0 0 0 0 0 0 0 0 0 0 0 0 0 0 0 0 0 0
0 0 0 0 0 0 0 0 0 0 0 0 0 0 0 0 0 0 0 0 0 0 0 0 0 0 0 0 0 0 0 0 0 0 0 0 0 0 0 0 0 0 0 0 0 0 0
0 0 0 0 0 0 0 0 0 0 0 0 0 0 0 0 0 0 0 0 0 0 0 0 0 0 0 0 0 0 0 0 0 0 0 0 0 0 0 0 0 0 0 0 0 0 0
0 0 0 0 0 0 0 0 0 0 0 0 0 0 0 0 0 0 0 0 0 0 0 0 0 0 0 0 0 0 0 0 0 0 0 0 0 0 0 0 0 0 0 0 0 0 0
0 0 0 0 0 0 0 0 0 0 0 0 0 0 0 0 0 0 0 0 0 0 0 0 0 0 0 0 0 0 0 0 0 0 0 0 0 0 0 0 0 0 0 0 0 0 0
0 0 0 0 0 0 0 0 0 0 0 0 0 0 0 0 0 0 0 0 0 0 0 0 0 0 0 0 0 0 0 0 0 0 0 0 0 0 0 0 0 0 0 0 0 0 0
0 0 0 0 0 0 0 0 0 0 0 0 0 0 0 0 0 0 0 0 0 0 0 0 0 0 0 0 0 0 0 0 0 0 0 0 0 0 0 0 0 0 0 0 0 0 0
0 0 0 0 0 0 0 0 0 0 0 0 0 0 0 0 0 0 0 0 0 0 0 0 0 0 0 0 0 0 0 0 0 0 0 0 0 0 0 0 0 0 0 0 0 0 0
0 0 0 0 0 0 0 0 0 0 0 0 0 0 0 0 0 0 0 0 0 0 0 0 0 0 0 0 0 0 0 0 0 0 0 0 0 0 0 0 0 0 0 0 0 0 0
0 0 0 0 0 0 0 0 0 0 0 0 0 0 0 0 0 0 0 0 0 0 0 0 0 0 0 0 0 0 0 0 0 0 0 0 0 0 0 0 0 0 0 0 0 0 0
0 0 0 0 0 0 0 0 0 0 0 0 0 0 0 0 0 0 0 0 0 0 0 0 0 0 0 0 0 0 0 0 0 0 0 0 0 0 0 0 0 0 0 0 0 0 0
Wind_Speed_500mb
20 19 19 20 22 23 25 27 29 30 30 31 31 30 29 27 21 16 13 14 16 16 23 33 40 28 17 45 34 58 57 43 43 32 37 29 40 13 8 4 5 6 5 16 20 18 24
18 17 16 18 21 23 26 28 29 29 31 31 31 31 28 28 22 16 13 14 10 10 7 4 9 27 44 32 49 63 52 38 41 27 28 34 19 15 12 4 4 10 11 19 12 17 19
16 15 15 18 21 23 25 27 28 30 32 33 31 32 29 29 23 14 12 14 12 14 12 12 11 6 54 34 55 68 51 39 34 20 20 21 30 33 4 2 13 7 9 11 5 15 8
14 14 14 17 20 22 24 25 27 28 31 32 31 33 29 26 23 12 11 11 14 19 19 12 9 16 19 26 44 72 54 39 27 22 18 16 10 15 22 11 9 8 6 11 8 14 7
13 12 12 16 19 21 22 24 26 28 30 31 30 32 29 25 24 12 8 11 16 27 27 34 18 9 13 28 49 78 49 42 23 20 17 11 9 15 22 7 6 13 12 17 19 8 10
11 10 11 14 18 20 21 23 27 29 30 30 30 32 31 24 25 13 10 12 10 7 9 9 42 9 33 35 35 73 42 35 28 12 7 16 13 6 7 13 4 16 12 11 27 10 11
10 9 9 12 17 19 21 24 27 29 31 31 30 33 31 22 27 11 16 17 3 9 56 35 29 11 21 24 19 78 57 14 29 22 10 13 16 10 11 2 6 9 8 24 29 20 36
9 7 7 11 14 17 20 23 25 28 31 32 30 34 32 19 28 14 5 6 8 21 26 20 23 33 26 18 27 77 62 21 22 10 16 7 7 10 11 4 14 20 25 15 23 13 34
9 6 5 8 11 16 18 20 24 28 30 29 28 33 32 15 27 19 7 11 24 21 11 11 23 27 36 13 20 55 65 13 12 10 10 8 5 19 8 7 35 23 8 11 26 46 6
9 7 4 6 9 14 16 19 23 27 30 28 27 33 32 19 14 21 9 17 21 8 8 18 19 19 37 3 11 46 66 13 15 10 7 4 11 14 10 14 25 14 6 38 36 17 7
10 6 3 4 6 11 14 17 22 27 29 29 25 32 33 28 21 18 5 16 13 0 9 11 10 13 17 21 21 46 58 15 4 9 8 7 12 10 9 21 21 14 44 33 17 3 7
12 8 5 1 3 8 12 16 20 24 28 28 21 31 35 28 31 24 9 13 11 10 8 9 12 18 11 19 12 29 32 25 5 5 3 6 8 2 7 26 10 28 20 2 5 5 5
14 11 7 3 2 7 11 15 19 24 26 27 20 23 35 33 29 23 8 11 8 13 3 14 10 12 5 12 10 18 10 19 13 14 15 14 6 5 13 8 8 22 14 10 13 9 7
18 14 9 6 3 6 9 12 17 22 25 26 19 13 36 32 32 23 5 6 19 2 4 2 8 7 8 16 5 17 8 11 12 9 4 11 13 8 18 7 8 9 8 6 9 9 17
21 17 13 9 5 4 8 12 16 21 25 26 15 7 35 31 29 22 4 13 4 5 4 12 9 9 6 5 6 13 9 2 6 3 5 10 11 6 1 5 8 10 9 2 5 4 4
24 20 15 12 8 3 6 10 15 19 23 24 11 4 32 29 23 16 11 8 4 0 2 3 5 7 7 12 14 13 6 7 6 2 4 5 12 6 6 4 8 8 2 6 6 14 14
26 23 17 14 10 5 4 7 13 19 25 21 6 2 28 24 15 15 8 5 5 4 1 2 3 2 5 6 2 4 6 8 3 5 3 7 5 12 8 2 8 3 6 5 1 4 6
27 25 20 17 13 9 3 4 9 15 22 17 3 3 22 17 13 13 6 5 5 5 3 3 6 6 7 1 4 4 6 12 4 7 4 6 5 8 12 7 8 7 11 8 1 9 11
26 27 23 19 16 12 6 4 6 13 21 13 3 4 14 9 7 4 4 4 2 3 2 3 3 4 6 3 5 6 6 7 6 10 7 6 2 12 15 6 5 4 6 7 7 6 11
24 26 26 23 20 17 10 6 5 9 17 11 3 4 12 18 16 16 9 6 6 3 4 3 3 3 2 2 8 7 5 6 18 4 5 2 5 14 15 28 3 23 16 10 7 5 7
26 25 27 25 23 21 14 9 5 6 9 8 6 6 5 2 7 13 7 5 8 7 3 4 2 6 9 2 5 8 7 10 6 6 6 6 8 11 28 34 21 16 18 8 9 15 9
30 27 28 27 27 24 19 15 10 6 4 4 2 7 11 10 11 8 1 8 11 5 10 6 7 8 11 10 13 10 5 5 10 5 7 3 7 7 17 3 9 6 6 12 13 16 23
35 30 29 29 29 27 24 20 15 10 5 1 4 8 7 5 6 6 6 10 12 13 11 7 12 6 10 23 34 40 39 33 27 4 5 2 6 9 11 15 6 6 12 10 16 12 16
42 36 32 31 32 30 27 23 17 11 9 6 4 8 7 3 5 7 13 9 13 12 8 6 15 8 5 20 35 17 13 18 19 21 25 5 3 3 9 17 9 12 7 14 17 32 10
53 44 38 34 33 33 31 26 21 15 13 10 8 5 6 4 8 8 15 8 9 6 7 7 12 11 18 17 7 8 5 2 1 4 7 19 3 7 6 3 13 4 6 13 7 19 9
60 53 46 41 36 36 34 30 24 17 14 14 11 10 6 12 13 8 13 13 7 5 2 5 7 7 6 7 6 6 5 6 10 10 13 10 6 3 5 5 8 11 12 41 12 10 7
64 61 53 47 41 37 37 33 27 21 18 17 12 13 8 5 14 17 7 9 14 8 4 4 4 2 4 4 4 1 6 3 5 6 5 6 4 5 6 8 14 5 36 34 12 14 67
70 66 60 51 45 40 39 37 33 25 23 20 14 16 11 8 22 21 16 11 14 13 8 14 6 1 6 6 5 4 4 5 4 6 6 5 3 5 2 5 13 5 7 6 16 58 55
78 71 67 58 49 42 40 41 37 29 27 25 20 20 15 8 12 20 19 15 13 12 10 15 4 8 10 7 2 5 5 2 3 6 3 5 11 5 13 10 6 33 31 18 46 52 53
Wind_Direction_500mb
96 85 74 65 58 53 48 43 39 35 33 32 33 34 35 35 38 43 54 64 68 69 97 78 59 41 46 58 29 4 0 0 4 13 30 34 40 53 71 54 52 56 335 300 301 305 292
102 91 77 65 55 49 45 40 37 33 31 32 35 34 36 35 38 41 55 47 40 53 84 346 348 42 53 71 22 5 4 3 5 30 49 50 40 68 81 61 70 315 290 288 298 296 287
105 92 76 62 52 47 44 39 35 31 29 31 33 31 33 33 34 47 47 42 51 57 50 56 45 19 48 57 19 6 14 15 3 45 71 81 61 62 41 25 342 329 343 324 243 302 294
105 91 73 59 50 43 41 36 33 30 29 30 31 27 28 32 29 46 45 59 70 69 58 51 32 43 82 27 13 8 10 23 16 66 84 76 37 42 35 320 30 24 35 341 299 310 294
110 96 72 57 47 41 37 32 29 27 26 29 30 25 25 31 26 42 51 102 102 112 57 47 40 88 49 360 4 10 9 21 44 70 85 74 56 58 15 42 40 27 287 296 310 262 288
118 97 72 53 43 36 31 27 24 22 20 25 29 24 24 28 25 47 80 125 123 263 322 19 33 52 18 352 358 5 19 29 44 102 70 42 53 64 27 35 18 315 314 281 295 296 333
123 103 72 51 40 35 28 22 21 19 15 20 27 23 22 31 30 62 122 129 117 62 66 72 58 81 8 5 359 11 15 27 31 41 20 18 54 21 319 330 200 254 249 280 282 283 327
135 109 76 52 36 32 28 22 17 16 15 17 23 20 19 34 36 34 188 235 152 134 90 69 48 35 16 10 7 12 15 43 31 21 337 29 68 313 288 237 336 318 300 291 287 298 318
149 129 87 54 34 31 26 19 15 14 14 18 18 17 20 29 36 27 54 141 139 127 82 45 34 21 16 22 37 7 13 17 37 28 9 87 8 323 347 332 346 330 240 292 294 324 284
173 161 122 63 27 29 20 15 11 11 11 13 20 15 25 27 18 17 71 140 145 131 88 340 356 16 6 96 51 13 12 22 26 8 2 42 349 351 338 352 354 308 279 303 304 326 293
192 187 173 100 39 19 18 12 9 8 9 9 16 15 21 30 18 21 63 170 180 237 43 349 359 3 14 60 346 7 13 39 22 340 45 293 356 350 1 339 336 275 303 305 291 208 10
201 206 212 187 45 15 12 10 5 5 8 5 8 14 19 15 14 25 85 149 155 46 312 349 3 359 16 33 18 353 20 28 1 354 58 256 307 271 319 309 325 323 307 352 78 102 360
210 217 218 243 340 8 5 3 359 0 7 0 357 11 14 14 14 19 91 145 37 82 28 341 337 2 32 337 351 12 15 24 43 9 15 332 334 346 348 330 328 360 352 349 356 5 256
215 221 221 230 285 346 357 357 358 356 360 359 353 7 12 13 10 14 57 58 62 143 337 11 348 321 43 358 32 351 20 24 32 59 12 24 336 16 350 136 244 347 83 111 304 308 303
214 220 224 229 234 315 344 354 356 356 357 355 353 358 9 7 3 6 38 49 182 226 257 341 313 18 354 11 6 11 47 273 246 44 81 6 272 320 321 71 109 323 35 212 265 265 310
217 220 221 231 233 272 337 350 352 357 356 352 354 338 3 2 5 12 69 118 176 143 100 45 81 50 323 330 7 33 12 240 298 233 215 241 296 246 308 65 58 102 278 11 7 330 314
224 224 223 230 232 244 318 344 353 358 356 353 357 44 360 359 8 44 88 176 150 161 155 68 169 316 222 301 347 322 268 274 220 8 107 145 146 293 349 55 188 7 19 28 219 261 290
226 227 225 229 229 229 264 316 354 4 1 357 10 45 3 6 27 53 80 134 142 161 125 98 98 133 189 249 303 297 258 214 177 329 318 217 166 283 260 295 162 136 179 139 90 289 257
226 226 226 227 229 229 244 285 349 1 4 6 60 36 10 29 90 75 129 79 109 137 151 136 159 199 181 217 345 225 257 265 250 327 192 206 338 319 348 3 42 171 249 188 213 230 234
234 226 224 222 226 226 228 253 300 351 2 15 47 34 32 57 85 126 140 167 158 124 131 152 164 154 110 285 210 283 281 284 314 294 283 181 153 175 227 257 175 298 284 234 220 236 260
233 229 222 222 225 226 224 244 276 325 357 28 46 90 78 359 33 107 108 150 146 195 161 180 223 213 152 317 277 236 244 303 304 356 30 93 250 212 250 262 280 257 265 167 177 236 251
232 230 224 222 224 227 224 237 255 282 323 18 20 149 104 93 119 106 242 221 176 188 148 221 203 176 167 192 198 254 221 217 258 328 5 54 270 344 287 136 136 267 183 202 233 254 260
232 233 228 224 223 226 226 233 246 258 271 211 105 138 137 124 125 107 214 184 206 164 209 210 195 151 221 245 260 267 270 259 255 322 313 20 323 342 271 317 63 14 219 227 253 243 257
231 236 235 229 224 225 227 231 238 250 251 242 191 165 148 189 176 205 173 171 173 204 177 199 203 169 219 300 300 277 255 254 251 260 226 272 337 204 288 331 17 241 226 229 246 294 229
229 235 237 233 229 225 226 227 229 235 235 229 205 193 174 134 170 168 172 152 149 180 212 230 225 244 306 329 12 356 339 307 76 100 209 204 82 311 317 249 290 8 287 309 15 309 202
228 231 234 233 229 226 224 224 226 229 229 222 203 210 196 144 224 152 164 179 169 199 288 220 231 272 331 53 50 53 297 252 316 335 79 90 74 138 339 332 277 239 288 324 138 297 317
228 229 230 231 229 227 224 221 223 226 221 215 209 204 198 151 156 165 186 172 168 164 166 207 180 130 48 56 63 117 284 169 304 288 297 343 19 203 276 276 287 277 322 345 38 271 327
228 226 225 227 226 225 223 218 220 222 219 217 212 201 201 165 174 195 196 177 168 182 151 165 109 196 66 77 129 206 179 249 336 249 197 173 121 272 82 335 320 337 338 60 286 310 317
225 225 223 223 224 223 223 219 218 221 217 212 211 200 199 181 163 198 207 212 207 186 186 176 181 152 164 94 87 114 215 126 149 290 78 326 187 207 185 233 275 322 323 322 331 322 328
Wind_Speed_850mb
20 19 19 20 22 23 25 27 29 30 30 31 31 30 29 27 21 16 13 14 16 16 23 33 40 28 17 45 34 58 57 43 43 32 37 29 40 13 8 4 5 6 5 16 20 18 24
18 17 16 18 21 23 26 28 29 29 31 31 31 31 28 28 22 16 13 14 10 10 7 4 9 27 44 32 49 63 52 38 41 27 28 34 19 15 12 4 4 10 11 19 12 17 19
16 15 15 18 21 23 25 27 28 30 32 33 31 32 29 29 23 14 12 14 12 14 12 12 11 6 54 34 55 68 51 39 34 20 20 21 30 33 4 2 13 7 9 11 5 15 8
14 14 14 17 20 22 24 25 27 28 31 32 31 33 29 26 23 12 11 11 14 19 19 12 9 16 19 26 44 72 54 39 27 22 18 16 10 15 22 11 9 8 6 11 8 14 7
13 12 12 16 19 21 22 24 26 28 30 31 30 32 29 25 24 12 8 11 16 27 27 34 18 9 13 28 49 78 49 42 23 20 17 11 9 15 22 7 6 13 12 17 19 8 10
11 10 11 14 18 20 21 23 27 29 30 30 30 32 31 24 25 13 10 12 10 7 9 9 42 9 33 35 35 73 42 35 28 12 7 16 13 6 7 13 4 16 12 11 27 10 11
10 9 9 12 17 19 21 24 27 29 31 31 30 33 31 22 27 11 16 17 3 9 56 35 29 11 21 24 19 78 57 14 29 22 10 13 16 10 11 2 6 9 8 24 29 20 36
9 7 7 11 14 17 20 23 25 28 31 32 30 34 32 19 28 14 5 6 8 21 26 20 23 33 26 18 27 77 62 21 22 10 16 7 7 10 11 4 14 20 25 15 23 13 34
9 6 5 8 11 16 18 20 24 28 30 29 28 33 32 15 27 19 7 11 24 21 11 11 23 27 36 13 20 55 65 13 12 10 10 8 5 19 8 7 35 23 8 11 26 46 6
9 7 4 6 9 14 16 19 23 27 30 28 27 33 32 19 14 21 9 17 21 8 8 18 19 19 37 3 11 46 66 13 15 10 7 4 11 14 10 14 25 14 6 38 36 17 7
10 6 3 4 6 11 14 17 22 27 29 29 25 32 33 28 21 18 5 16 13 0 9 11 10 13 17 21 21 46 58 15 4 9 8 7 12 10 9 21 21 14 44 33 17 3 7
12 8 5 1 3 8 12 16 20 24 28 28 21 31 35 28 31 24 9 13 11 10 8 9 12 18 11 19 12 29 32 25 5 5 3 6 8 2 7 26 10 28 20 2 5 5 5
14 11 7 3 2 7 11 15 19 24 26 27 20 23 35 33 29 23 8 11 8 13 3 14 10 12 5 12 10 18 10 19 13 14 15 14 6 5 13 8 8 22 14 10 13 9 7
18 14 9 6 3 6 9 12 17 22 25 26 19 13 36 32 32 23 5 6 19 2 4 2 8 7 8 16 5 17 8 11 12 9 4 11 13 8 18 7 8 9 8 6 9 9 17
21 17 13 9 5 4 8 12 16 21 25 26 15 7 35 31 29 22 4 13 4 5 4 12 9 9 6 5 6 13 9 2 6 3 5 10 11 6 1 5 8 10 9 2 5 4 4
24 20 15 12 8 3 6 10 15 19 23 24 11 4 32 29 23 16 11 8 4 0 2 3 5 7 7 12 14 13 6 7 6 2 4 5 12 6 6 4 8 8 2 6 6 14 14
26 23 17 14 10 5 4 7 13 19 25 21 6 2 28 24 15 15 8 5 5 4 1 2 3 2 5 6 2 4 6 8 3 5 3 7 5 12 8 2 8 3 6 5 1 4 6
27 25 20 17 13 9 3 4 9 15 22 17 3 3 22 17 13 13 6 5 5 5 3 3 6 6 7 1 4 4 6 12 4 7 4 6 5 8 12 7 8 7 11 8 1 9 11
26 27 23 19 16 12 6 4 6 13 21 13 3 4 14 9 7 4 4 4 2 3 2 3 3 4 6 3 5 6 6 7 6 10 7 6 2 12 15 6 5 4 6 7 7 6 11
24 26 26 23 20 17 10 6 5 9 17 11 3 4 12 18 16 16 9 6 6 3 4 3 3 3 2 2 8 7 5 6 18 4 5 2 5 14 15 28 3 23 16 10 7 5 7
26 25 27 25 23 21 14 9 5 6 9 8 6 6 5 2 7 13 7 5 8 7 3 4 2 6 9 2 5 8 7 10 6 6 6 6 8 11 28 34 21 16 18 8 9 15 9
30 27 28 27 27 24 19 15 10 6 4 4 2 7 11 10 11 8 1 8 11 5 10 6 7 8 11 10 13 10 5 5 10 5 7 3 7 7 17 3 9 6 6 12 13 16 23
35 30 29 29 29 27 24 20 15 10 5 1 4 8 7 5 6 6 6 10 12 13 11 7 12 6 10 23 34 40 39 33 27 4 5 2 6 9 11 15 6 6 12 10 16 12 16
42 36 32 31 32 30 27 23 17 11 9 6 4 8 7 3 5 7 13 9 13 12 8 6 15 8 5 20 35 17 13 18 19 21 25 5 3 3 9 17 9 12 7 14 17 32 10
53 44 38 34 33 33 31 26 21 15 13 10 8 5 6 4 8 8 15 8 9 6 7 7 12 11 18 17 7 8 5 2 1 4 7 19 3 7 6 3 13 4 6 13 7 19 9
60 53 46 41 36 36 34 30 24 17 14 14 11 10 6 12 13 8 13 13 7 5 2 5 7 7 6 7 6 6 5 6 10 10 13 10 6 3 5 5 8 11 12 41 12 10 7
64 61 53 47 41 37 37 33 27 21 18 17 12 13 8 5 14 17 7 9 14 8 4 4 4 2 4 4 4 1 6 3 5 6 5 6 4 5 6 8 14 5 36 34 12 14 67
70 66 60 51 45 40 39 37 33 25 23 20 14 16 11 8 22 21 16 11 14 13 8 14 6 1 6 6 5 4 4 5 4 6 6 5 3 5 2 5 13 5 7 6 16 58 55
78 71 67 58 49 42 40 41 37 29 27 25 20 20 15 8 12 20 19 15 13 12 10 15 4 8 10 7 2 5 5 2 3 6 3 5 11 5 13 10 6 33 31 18 46 52 53
Wind_Direction_850mb
96 85 74 65 58 53 48 43 39 35 33 32 33 34 35 35 38 43 54 64 68 69 97 78 59 41 46 58 29 4 0 0 4 13 30 34 40 53 71 54 52 56 335 300 301 305 292
102 91 77 65 55 49 45 40 37 33 31 32 35 34 36 35 38 41 55 47 40 53 84 346 348 42 53 71 22 5 4 3 5 30 49 50 40 68 81 61 70 315 290 288 298 296 287
105 92 76 62 52 47 44 39 35 31 29 31 33 31 33 33 34 47 47 42 51 57 50 56 45 19 48 57 19 6 14 15 3 45 71 81 61 62 41 25 342 329 343 324 243 302 294
105 91 73 59 50 43 41 36 33 30 29 30 31 27 28 32 29 46 45 59 70 69 58 51 32 43 82 27 13 8 10 23 16 66 84 76 37 42 35 320 30 24 35 341 299 310 294
110 96 72 57 47 41 37 32 29 27 26 29 30 25 25 31 26 42 51 102 102 112 57 47 40 88 49 360 4 10 9 21 44 70 85 74 56 58 15 42 40 27 287 296 310 262 288
118 97 72 53 43 36 31 27 24 22 20 25 29 24 24 28 25 47 80 125 123 263 322 19 33 52 18 352 358 5 19 29 44 102 70 42 53 64 27 35 18 315 314 281 295 296 333
123 103 72 51 40 35 28 22 21 19 15 20 27 23 22 31 30 62 122 129 117 62 66 72 58 81 8 5 359 11 15 27 31 41 20 18 54 21 319 330 200 254 249 280 282 283 327
135 109 76 52 36 32 28 22 17 16 15 17 23 20 19 34 36 34 188 235 152 134 90 69 48 35 16 10 7 12 15 43 31 21 337 29 68 313 288 237 336 318 300 291 287 298 318
149 129 87 54 34 31 26 19 15 14 14 18 18 17 20 29 36 27 54 141 139 127 82 45 34 21 16 22 37 7 13 17 37 28 9 87 8 323 347 332 346 330 240 292 294 324 284
173 161 122 63 27 29 20 15 11 11 11 13 20 15 25 27 18 17 71 140 145 131 88 340 356 16 6 96 51 13 12 22 26 8 2 42 349 351 338 352 354 308 279 303 304 326 293
192 187 173 100 39 19 18 12 9 8 9 9 16 15 21 30 18 21 63 170 180 237 43 349 359 3 14 60 346 7 13 39 22 340 45 293 356 350 1 339 336 275 303 305 291 208 10
201 206 212 187 45 15 12 10 5 5 8 5 8 14 19 15 14 25 85 149 155 46 312 349 3 359 16 33 18 353 20 28 1 354 58 256 307 271 319 309 325 323 307 352 78 102 360
210 217 218 243 340 8 5 3 359 0 7 0 357 11 14 14 14 19 91 145 37 82 28 341 337 2 32 337 351 12 15 24 43 9 15 332 334 346 348 330 328 360 352 349 356 5 256
215 221 221 230 285 346 357 357 358 356 360 359 353 7 12 13 10 14 57 58 62 143 337 11 348 321 43 358 32 351 20 24 32 59 12 24 336 16 350 136 244 347 83 111 304 308 303
214 220 224 229 234 315 344 354 356 356 357 355 353 358 9 7 3 6 38 49 182 226 257 341 313 18 354 11 6 11 47 273 246 44 81 6 272 320 321 71 109 323 35 212 265 265 310
217 220 221 231 233 272 337 350 352 357 356 352 354 338 3 2 5 12 69 118 176 143 100 45 81 50 323 330 7 33 12 240 298 233 215 241 296 246 308 65 58 102 278 11 7 330 314
224 224 223 230 232 244 318 344 353 358 356 353 357 44 360 359 8 44 88 176 150 161 155 68 169 316 222 301 347 322 268 274 220 8 107 145 146 293 349 55 188 7 19 28 219 261 290
226 227 225 229 229 229 264 316 354 4 1 357 10 45 3 6 27 53 80 134 142 161 125 98 98 133 189 249 303 297 258 214 177 329 318 217 166 283 260 295 162 136 179 139 90 289 257
226 226 226 227 229 229 244 285 349 1 4 6 60 36 10 29 90 75 129 79 109 137 151 136 159 199 181 217 345 225 257 265 250 327 192 206 338 319 348 3 42 171 249 188 213 230 234
234 226 224 222 226 226 228 253 300 351 2 15 47 34 32 57 85 126 140 167 158 124 131 152 164 154 110 285 210 283 281 284 314 294 283 181 153 175 227 257 175 298 284 234 220 236 260
233 229 222 222 225 226 224 244 276 325 357 28 46 90 78 359 33 107 108 150 146 195 161 180 223 213 152 317 277 236 244 303 304 356 30 93 250 212 250 262 280 257 265 167 177 236 251
232 230 224 222 224 227 224 237 255 282 323 18 20 149 104 93 119 106 242 221 176 188 148 221 203 176 167 192 198 254 221 217 258 328 5 54 270 344 287 136 136 267 183 202 233 254 260
232 233 228 224 223 226 226 233 246 258 271 211 105 138 137 124 125 107 214 184 206 164 209 210 195 151 221 245 260 267 270 259 255 322 313 20 323 342 271 317 63 14 219 227 253 243 257
231 236 235 229 224 225 227 231 238 250 251 242 191 165 148 189 176 205 173 171 173 204 177 199 203 169 219 300 300 277 255 254 251 260 226 272 337 204 288 331 17 241 226 229 246 294 229
229 235 237 233 229 225 226 227 229 235 235 229 205 193 174 134 170 168 172 152 149 180 212 230 225 244 306 329 12 356 339 307 76 100 209 204 82 311 317 249 290 8 287 309 15 309 202
228 231 234 233 229 226 224 224 226 229 229 222 203 210 196 144 224 152 164 179 169 199 288 220 231 272 331 53 50 53 297 252 316 335 79 90 74 138 339 332 277 239 288 324 138 297 317
228 229 230 231 229 227 224 221 223 226 221 215 209 204 198 151 156 165 186 172 168 164 166 207 180 130 48 56 63 117 284 169 304 288 297 343 19 203 276 276 287 277 322 345 38 271 327
228 226 225 227 226 225 223 218 220 222 219 217 212 201 201 165 174 195 196 177 168 182 151 165 109 196 66 77 129 206 179 249 336 249 197 173 121 272 82 335 320 337 338 60 286 310 317
225 225 223 223 224 223 223 219 218 221 217 212 211 200 199 181 163 198 207 212 207 186 186 176 181 152 164 94 87 114 215 126 149 290 78 326 187 207 185 233 275 322 323 322 331 322 328